Date String (YYYY-MM-DD hh:mm:ss) UTC,Instrument flags,absolute air pressure of the measurement (hPa),sample flow rate (lpm),inlet stack bypass flow (lpm),air temperature of the measurement (°C),ambient temperature measured by the external sensor (°C),aerosol sample conditioner tube jacket temperature (°C),OPC LED temperature (°C),internal box temperature (°C),relative humidity of the measurement (%),span deviation,mass concentration of particles derived from Lorenz-Mie calculation of OPC scattering (μg/m³),mass concentration of particles derived from Lorenz-Mie calculation of OPC scattering (μg/m³),mass concentration of particles derived from Lorenz-Mie calculation of OPC scattering (μg/m³)
DateTimeUTC,F1_M11,P_M11,Q1_M11,Q2_M11,T1_M11,T2_M11,T3_M11,T4_M11,T5_M11,U1_M11,ZSPAN_M11,X0_M11,X2_M11,X1_M11
2023-12-05 06:00:00,SystemResetWarning,0833.8,5.00,000.00,022.4,021.5,000.0,030.7,023.6,18.8,0000.0,0003.94,0001.68,0001.21
2023-12-05 06:01:00,SystemResetWarning,0833.9,5.00,000.00,022.4,021.5,000.0,030.7,023.6,18.8,0000.0,0003.85,0001.71,0001.23
2023-12-05 06:02:00,SystemResetWarning,0833.8,5.00,000.00,022.4,021.5,000.0,030.7,023.6,18.8,0000.0,0003.79,0001.72,0001.23
2023-12-05 06:03:00,SystemResetWarning,0833.9,5.00,000.00,022.4,021.4,000.0,030.7,023.6,18.8,0000.0,0004.83,0001.69,0001.24
2023-12-05 06:04:00,SystemResetWarning,0834.0,5.00,000.00,022.3,021.4,000.0,030.7,023.6,18.8,0000.0,0004.80,0001.70,0001.24
2023-12-05 06:05:00,SystemResetWarning,0833.9,5.01,000.00,022.3,021.4,000.0,030.7,023.5,18.8,0000.0,0004.58,0001.73,0001.25
2023-12-05 06:06:00,SystemResetWarning,0833.9,5.00,000.00,022.3,021.4,000.0,030.7,023.6,18.7,0000.0,0004.18,0001.74,0001.26
2023-12-05 06:07:00,SystemResetWarning,0833.9,5.00,000.00,022.3,021.4,000.0,030.7,023.6,18.7,0000.0,0004.20,0001.78,0001.27
2023-12-05 06:08:00,SystemResetWarning,0833.9,5.00,000.00,022.3,021.4,000.0,030.7,023.6,18.7,0000.0,0004.10,0001.75,0001.27
2023-12-05 06:09:00,SystemResetWarning,0833.9,4.99,000.00,022.3,021.4,000.0,030.7,023.6,18.7,0000.0,0004.11,0001.76,0001.28
2023-12-05 06:10:00,SystemResetWarning,0833.9,4.99,000.00,022.3,021.4,000.0,030.7,023.6,18.7,0000.0,0004.22,0001.74,0001.28
2023-12-05 06:11:00,SystemResetWarning,0834.0,4.99,000.00,022.3,021.4,000.0,030.7,023.5,18.7,0000.0,0004.41,0001.76,0001.28
2023-12-05 06:12:00,SystemResetWarning,0834.0,5.01,000.00,022.3,021.4,000.0,030.7,023.5,18.6,0000.0,0004.32,0001.74,0001.28
2023-12-05 06:13:00,SystemResetWarning,0834.0,5.01,000.00,022.3,021.4,000.0,030.7,023.5,18.6,0000.0,0005.13,0001.75,0001.29
2023-12-05 06:14:00,SystemResetWarning,0833.9,5.01,000.00,022.3,021.4,000.0,030.6,023.5,18.7,0000.0,0004.82,0001.76,0001.28
2023-12-05 06:15:00,SystemResetWarning,0834.0,5.00,000.00,022.3,021.4,000.0,030.6,023.5,18.7,0000.0,0004.88,0001.76,0001.28
2023-12-05 06:16:00,SystemResetWarning,0834.0,5.00,000.00,022.2,021.4,000.0,030.6,023.5,18.7,0000.0,0004.97,0001.76,0001.28
2023-12-05 06:17:00,SystemResetWarning,0834.0,4.99,000.00,022.2,021.3,000.0,030.6,023.5,18.7,0000.0,0004.82,0001.74,0001.28
2023-12-05 06:18:00,SystemResetWarning,0834.0,4.99,000.00,022.2,021.3,000.0,030.6,023.4,18.7,0000.0,0004.53,0001.67,0001.28
2023-12-05 06:19:00,SystemResetWarning,0834.0,5.00,000.00,022.2,021.3,000.0,030.6,023.4,18.7,0000.0,0005.70,0001.69,0001.28
2023-12-05 06:20:00,SystemResetWarning,0833.9,5.01,000.00,022.2,021.3,000.0,030.6,023.5,18.7,0000.0,0006.63,0001.73,0001.28
2023-12-05 06:21:00,SystemResetWarning,0834.0,5.01,000.00,022.2,021.3,000.0,030.6,023.5,18.8,0000.0,0006.62,0001.77,0001.28
2023-12-05 06:22:00,SystemResetWarning,0833.9,5.00,000.00,022.2,021.3,000.0,030.6,023.5,18.8,0000.0,0007.53,0001.78,0001.28
2023-12-05 06:23:00,SystemResetWarning,0833.9,4.99,000.00,022.2,021.3,000.0,030.6,023.4,18.9,0000.0,0007.92,0001.77,0001.29
2023-12-05 06:24:00,SystemResetWarning,0834.0,4.99,000.00,022.2,021.3,000.0,030.6,023.4,18.9,0000.0,0007.56,0001.78,0001.30
2023-12-05 06:25:00,SystemResetWarning,0833.9,5.01,000.00,022.2,021.3,000.0,030.6,023.4,18.9,0000.0,0007.07,0001.80,0001.30
2023-12-05 06:26:00,SystemResetWarning,0833.9,5.00,000.00,022.2,021.3,000.0,030.6,023.4,18.9,0000.0,0006.92,0001.79,0001.31
2023-12-05 06:27:00,SystemResetWarning,0833.9,5.01,000.00,022.1,021.3,000.0,030.6,023.4,19.0,0000.0,0006.89,0001.79,0001.31
2023-12-05 06:28:00,SystemResetWarning,0833.8,5.00,000.00,022.1,021.3,000.0,030.6,023.4,19.0,0000.0,0007.23,0001.84,0001.32
2023-12-05 06:29:00,SystemResetWarning,0833.8,4.99,000.00,022.2,021.3,000.0,030.6,023.4,19.0,0000.0,0007.35,0001.87,0001.32
2023-12-05 06:30:00,SystemResetWarning,0833.8,4.99,000.00,022.2,021.3,000.0,030.5,023.4,18.9,0000.0,0006.30,0001.86,0001.32
2023-12-05 06:31:00,SystemResetWarning,0833.8,5.00,000.00,022.2,021.3,000.0,030.5,023.4,18.9,0000.0,0006.73,0001.83,0001.32
2023-12-05 06:32:00,SystemResetWarning,0833.7,4.99,000.00,022.2,021.3,000.0,030.5,023.4,18.9,0000.0,0007.21,0001.78,0001.32
2023-12-05 06:33:00,SystemResetWarning,0833.8,5.00,000.00,022.2,021.3,000.0,030.5,023.4,18.9,0000.0,0005.82,0001.77,0001.32
2023-12-05 06:34:00,SystemResetWarning,0833.9,5.00,000.00,022.2,021.3,000.0,030.5,023.4,18.9,0000.0,0005.28,0001.80,0001.31
2023-12-05 06:35:00,SystemResetWarning,0833.9,5.01,000.00,022.1,021.2,000.0,030.5,023.4,18.9,0000.0,0005.77,0001.79,0001.30
2023-12-05 06:36:00,SystemResetWarning,0833.8,5.00,000.00,022.1,021.2,000.0,030.5,023.3,18.9,0000.0,0006.54,0001.75,0001.29
2023-12-05 06:37:00,SystemResetWarning,0833.8,4.99,000.00,022.1,021.2,000.0,030.5,023.4,18.9,0000.0,0008.04,0001.74,0001.28
2023-12-05 06:38:00,SystemResetWarning,0833.8,4.99,000.00,022.1,021.2,000.0,030.5,023.3,18.9,0000.0,0008.00,0001.71,0001.27
2023-12-05 06:39:00,SystemResetWarning,0834.0,5.00,000.00,022.1,021.2,000.0,030.5,023.3,18.9,0000.0,0007.82,0001.67,0001.27
2023-12-05 06:40:00,SystemResetWarning,0834.0,5.01,000.00,022.1,021.2,000.0,030.5,023.3,18.9,0000.0,0008.25,0001.68,0001.27
2023-12-05 06:41:00,SystemResetWarning,0834.1,5.00,000.00,022.1,021.2,000.0,030.5,023.3,18.9,0000.0,0008.58,0001.70,0001.27
2023-12-05 06:42:00,SystemResetWarning,0834.0,5.01,000.00,022.1,021.2,000.0,030.5,023.3,18.8,0000.0,0008.03,0001.74,0001.26
2023-12-05 06:43:00,SystemResetWarning,0834.0,5.00,000.00,022.1,021.2,000.0,030.5,023.3,18.8,0000.0,0007.92,0001.77,0001.26
2023-12-05 06:44:00,SystemResetWarning,0834.0,5.00,000.00,022.1,021.2,000.0,030.5,023.3,18.8,0000.0,0007.90,0001.80,0001.26
2023-12-05 06:45:00,SystemResetWarning,0833.9,5.00,000.00,022.1,021.2,000.0,030.5,023.4,18.8,0000.0,0007.95,0001.81,0001.26
2023-12-05 06:46:00,SystemResetWarning,0833.9,5.00,000.00,022.1,021.2,000.0,030.5,023.4,18.7,0000.0,0007.65,0001.78,0001.26
2023-12-05 06:47:00,SystemResetWarning,0833.9,5.00,000.00,022.1,021.2,000.0,030.5,023.3,18.7,0000.0,0007.06,0001.78,0001.27
2023-12-05 06:48:00,SystemResetWarning,0833.9,5.00,000.00,022.1,021.2,000.0,030.5,023.4,18.7,0000.0,0004.91,0001.77,0001.28
2023-12-05 06:49:00,SystemResetWarning,0833.9,5.00,000.00,022.1,021.2,000.0,030.5,023.3,18.6,0000.0,0005.24,0001.81,0001.28
2023-12-05 06:50:00,SystemResetWarning,0833.9,5.00,000.00,022.1,021.2,000.0,030.5,023.3,18.6,0000.0,0006.01,0001.80,0001.27
2023-12-05 06:51:00,SystemResetWarning,0833.9,5.00,000.00,022.1,021.2,000.0,030.5,023.4,18.6,0000.0,0005.91,0001.77,0001.26
2023-12-05 06:52:00,SystemResetWarning,0833.9,5.00,000.00,022.1,021.2,000.0,030.4,023.3,18.6,0000.0,0006.70,0001.75,0001.25
2023-12-05 06:53:00,SystemResetWarning,0833.9,5.01,000.00,022.1,021.2,000.0,030.4,023.3,18.6,0000.0,0006.79,0001.71,0001.26
2023-12-05 06:54:00,SystemResetWarning,0833.8,5.01,000.00,022.1,021.2,000.0,030.4,023.3,18.6,0000.0,0006.29,0001.69,0001.25
2023-12-05 06:55:00,SystemResetWarning,0833.9,5.01,000.00,022.1,021.2,000.0,030.4,023.3,18.6,0000.0,0006.97,0001.70,0001.26
2023-12-05 06:56:00,SystemResetWarning,0833.9,4.99,000.00,022.1,021.2,000.0,030.4,023.3,18.6,0000.0,0007.50,0001.71,0001.26
2023-12-05 06:57:00,SystemResetWarning,0833.9,4.98,000.00,022.1,021.2,000.0,030.4,023.2,18.6,0000.0,0007.54,0001.74,0001.27
2023-12-05 06:58:00,SystemResetWarning,0833.9,5.00,000.00,022.0,021.1,000.0,030.4,023.2,18.6,0000.0,0008.20,0001.74,0001.26
2023-12-05 06:59:00,SystemResetWarning,0834.0,5.01,000.00,022.0,021.1,000.0,030.4,023.2,18.6,0000.0,0008.56,0001.77,0001.27
